EW9198 Weather Reports


Display with metric or nautical units.
time (UTC)temp
F
wind
direction
speed
MPH
gust
MPH
rain 1hr
in
rain 24hr
in
rain mn
in
humidity
%
barometer
mb
20240224134547 0 5 0.0 1.0 0.00 0.00 0.00 1020.1
20240224133046 0 5 1.0 2.0 0.00 0.00 0.00 1019.8
20240224131538 0 5 0.0 3.0 0.00 0.00 0.00 1019.6
20240224130047 0 5 0.0 0.0 0.00 0.00 0.00 1019.6
20240224124527 0 5 0.0 0.0 0.00 0.00 0.00 1019.3
20240224123024 0 5 0.0 1.0 0.00 0.00 0.00 1019.3
20240224121523 0 5 3.0 5.0 0.00 0.00 0.00 1018.9
20240224120015 0 5 0.0 2.0 0.00 0.00 0.00 1018.8
20240224114507 0 5 1.0 3.0 0.00 0.00 0.00 1018.8
20240224113001 0 5 1.0 3.0 0.00 0.00 0.00 1018.7
20240224111558 0 5 0.0 2.0 0.00 0.00 0.00 1018.4
20240224110102 0 5 0.0 0.0 0.00 0.00 0.00 1018.3
20240224104518 0 5 1.0 2.0 0.00 0.00 0.00 1018.1
20240224103015 0 5 0.0 0.0 0.00 0.00 0.00 1018.2
20240224101547 0 5 0.0 4.0 0.00 0.00 0.00 1018.1
20240224100046 0 5 2.0 3.0 0.00 0.00 0.00 1017.9
20240224094529 0 5 0.0 3.0 0.00 0.00 0.00 1017.8
20240224093024 0 5 2.0 5.0 0.00 0.00 0.00 1018.0
20240224091521 0 5 3.0 5.0 0.00 0.00 0.00 1017.9
20240224090020 0 5 0.0 0.0 0.00 0.00 0.00 1017.8
20240224084514 0 5 0.0 2.0 0.00 0.00 0.00 1017.7
20240224083006 0 5 0.0 1.0 0.00 0.00 0.00 1017.8
20240224081501 0 5 0.0 1.0 0.00 0.00 0.00 1017.8
20240224080138 0 5 0.0 2.0 0.00 0.00 0.00 1017.7
20240224074551 0 5 1.0 4.0 0.00 0.00 0.00 1017.7
20240224073046 0 5 1.0 3.0 0.00 0.00 0.00 1017.8
20240224071542 0 5 2.0 3.0 0.00 0.00 0.00 1017.9
20240224070038 0 5 0.0 3.0 0.00 0.00 0.00 1017.7
20240224064531 0 5 0.0 3.0 0.00 0.00 0.00 1017.9
20240224063033 0 5 1.0 3.0 0.00 0.00 0.00 1017.8
20240224061525 0 5 1.0 4.0 0.00 0.00 0.00 1017.8
20240224060020 0 5 1.0 3.0 0.00 0.00 0.00 1018.1
20240224054510 0 5 2.0 4.0 0.00 0.00 0.00 1017.9
20240224053004 0 5 3.0 5.0 0.00 0.00 0.00 1018.1
20240224051600 0 5 3.0 5.0 0.00 0.00 0.00 1018.3
20240224050056 0 5 2.0 4.0 0.00 0.00 0.00 1018.1
20240224044559 0 5 3.0 6.0 0.00 0.00 0.00 1017.7
20240224043047 0 5 5.0 8.0 0.00 0.00 0.00 1017.7
20240224041553 0 5 5.0 8.0 0.00 0.00 0.00 1017.5
20240224040035 0 5 7.0 9.0 0.00 0.00 0.00 1017.5
20240224034531 0 5 6.0 9.0 0.00 0.00 0.00 1017.3
20240224033056 0 5 6.0 9.0 0.00 0.00 0.00 1017.1
20240224031557 0 5 8.0 11.0 0.00 0.00 0.00 1017.0
20240224030048 0 5 9.0 12.0 0.00 0.00 0.00 1016.9
20240224024542 0 5 9.0 11.0 0.00 0.00 0.00 1016.6
20240224023042 0 5 11.0 13.0 0.00 0.00 0.00 1016.6
20240224021543 0 5 11.0 13.0 0.00 0.00 0.00 1016.4
20240224020025 0 5 11.0 14.0 0.00 0.00 0.00 1016.2
20240224014521 0 5 12.0 14.0 0.00 0.00 0.00 1016.2
20240224013016 0 5 10.0 13.0 0.00 0.00 0.00 1015.8
20240224011512 0 5 9.0 11.0 0.00 0.00 0.00 1015.4
20240224010013 0 5 9.0 12.0 0.00 0.00 0.00 1015.2
20240224004605 0 5 10.0 13.0 0.00 0.00 0.00 1015.0
20240224003056 0 5 11.0 13.0 0.00 0.00 0.00 1014.8
20240224001554 0 5 12.0 16.0 0.00 0.00 0.00 1014.7
20240224000044 0 5 11.0 16.0 0.00 0.00 0.00 1014.3
20240223234545 0 5 13.0 17.0 0.00 0.00 0.00 1014.1
20240223233037 0 5 12.0 14.0 0.00 0.00 0.00 1014.0
20240223231531 0 5 11.0 16.0 0.00 0.00 0.00 1013.9
20240223230103 0 5 12.0 17.0 0.00 0.00 0.00 1013.7
20240223224553 0 5 14.0 20.0 0.00 0.00 0.00 1013.6
20240223223123 0 5 13.0 17.0 0.00 0.00 0.00 1013.5
20240223221542 0 5 15.0 18.0 0.00 0.00 0.00 1013.6
20240223220038 0 5 12.0 14.0 0.00 0.00 0.00 1013.5
20240223214538 0 5 13.0 15.0 0.00 0.00 0.00 1013.4
20240223213033 0 5 10.0 14.0 0.00 0.00 0.00 1013.4
20240223211522 0 5 11.0 14.0 0.00 0.00 0.00 1013.5
20240223210021 0 5 10.0 13.0 0.00 0.00 0.00 1013.5
20240223204513 0 5 11.0 13.0 0.00 0.00 0.00 1013.6
20240223203007 0 5 12.0 14.0 0.00 0.00 0.00 1013.9
20240223201502 0 5 12.0 17.0 0.00 0.00 0.00 1014.0
20240223200058 0 5 14.0 16.0 0.00 0.00 0.00 1014.1
20240223194641 0 5 13.0 16.0 0.00 0.00 0.00 1014.4
20240223193051 0 5 10.0 12.0 0.00 0.00 0.00 1014.6
20240223191541 0 5 11.0 13.0 0.00 0.00 0.00 1014.7
20240223190036 0 5 10.0 13.0 0.00 0.00 0.00 1015.0
20240223184532 0 5 8.0 11.0 0.00 0.00 0.00 1015.4
20240223183029 0 5 10.0 13.0 0.00 0.00 0.00 1015.6
20240223181521 0 5 9.0 11.0 0.00 0.00 0.00 1015.8
20240223180016 0 5 12.0 13.0 0.00 0.00 0.00 1016.0
20240223174513 0 5 11.0 13.0 0.00 0.00 0.00 1016.1
20240223173007 0 5 9.0 13.0 0.00 0.00 0.00 1016.3
20240223171636 0 5 9.0 12.0 0.00 0.00 0.00 1016.2
20240223170057 0 5 10.0 12.0 0.00 0.00 0.00 1016.2
20240223164552 0 5 10.0 11.0 0.00 0.00 0.00 1016.1
20240223163048 0 5 7.0 9.0 0.00 0.00 0.00 1015.9
20240223161540 0 5 7.0 9.0 0.00 0.00 0.00 1016.0
20240223160036 0 5 7.0 10.0 0.00 0.00 0.00 1015.9
20240223154532 0 5 8.0 10.0 0.00 0.00 0.00 1015.8
20240223153030 0 5 9.0 13.0 0.00 0.00 0.00 1015.7
20240223151557 0 5 11.0 13.0 0.00 0.00 0.00 1015.4
20240223150051 0 5 9.0 12.0 0.00 0.00 0.00 1015.3
20240223144540 0 5 10.0 13.0 0.00 0.00 0.00 1015.1
20240223143036 0 5 10.0 13.0 0.00 0.00 0.00 1014.8
20240223141530 0 5 11.0 14.0 0.00 0.00 0.00 1014.6
20240223140027 0 5 12.0 15.0 0.00 0.00 0.00 1014.2